ARTHUR-1 (48953 NORAD) Tracking and Keplerian Element Data

This shows tracking and keplerian element data for the satellite.

Feedback or suggestion? Click here.




ElementValue
Catalog48953
NameARTHUR-1
Epoch Orbit1685
Epoch Day288.20244394
Epoch Year2021
RAAN55.6441
Inclination97.5234
Eccentricity0.0013926
Argument of Perigee225.8547
Mean Anonmoly253.5832
Mean Motion15.14379737
Decay Rate2.283E-05
L11 48953U 21059CC 21288.20244394 .00002283 00000-0 12782-3 0 9993
L22 48953 97.5234 55.6441 0013926 225.8547 253.5832 15.14379737 16855

Live tracking and technical data element details for ARTHUR-1 (NORAD 48953). ARTHUR-1 can be tracked NOW for your location showing map with azimuth and elevation plus other details from your city location.

Track the satellite on the map from your city or location and see movement details for azimuth, elevation, latitude, longitude, range, height, and movement on the map or in text.







IsCatalogInMostPopularTable: catalog: 48953, numindb: 19
Update: records affected: 1



GetName: 48953 ARTHUR-1

Hit Count: updated at: Tue, 19 Oct 2021 08:36:53 GMT